This is the latest recevied weather packets stored in our database for station/object KC3BAN-3. If no packets are shown the sender has not sent any weather packets the latest 10 day(s).
| Time | Temp. | Humidity | Pressure | Rain* | Wind** | Luminosity | Snow |
|---|---|---|---|---|---|---|---|
| 1777781138 | 12.78° C | 70% | 1011.8 hPa | 0 mm | - | - | - |
| 1777780839 | 12.78° C | 70% | 1011.8 hPa | 0 mm | - | - | - |
| 1777780668 | 12.78° C | 70% | 1011.8 hPa | 0 mm | - | - | - |
| 1777780236 | 13.33° C | 72% | 1011.7 hPa | 0 mm | - | - | - |
| 1777780063 | 13.33° C | 75% | 1011.7 hPa | 0 mm | - | - | - |
| 1777779636 | 13.33° C | 72% | 1011.8 hPa | 0 mm | - | - | - |
| 1777779336 | 13.33° C | 72% | 1011.8 hPa | 0 mm | - | - | - |
| 1777779035 | 13.33° C | 78% | 1011.6 hPa | 0 mm | - | - | - |
| 1777778736 | 13.33° C | 78% | 1011.7 hPa | 0 mm | - | - | - |
| 1777778435 | 13.33° C | 76% | 1011.9 hPa | 0 mm | - | - | - |
| 1777778136 | 13.33° C | 75% | 1012 hPa | 0 mm | - | - | - |
| 1777777836 | 13.33° C | 75% | 1012 hPa | 0 mm | - | - | - |
| 1777777533 | 13.33° C | 74% | 1012 hPa | 0 mm | - | - | - |
| 1777777233 | 13.33° C | 72% | 1011.7 hPa | 0 mm | - | - | - |
| 1777776934 | 13.33° C | 74% | 1011.8 hPa | 0 mm | - | - | - |
| 1777776635 | 12.78° C | 74% | 1011.9 hPa | 0 mm | - | - | - |
| 1777776333 | 12.78° C | 77% | 1012 hPa | 0 mm | - | - | - |
| 1777776035 | 12.78° C | 74% | 1011.9 hPa | 0 mm | - | - | - |
| 1777775734 | 12.78° C | 76% | 1012 hPa | 0 mm | - | - | - |
| 1777775434 | 12.78° C | 75% | 1011.8 hPa | 0 mm | - | - | - |
| 1777775133 | 12.78° C | 77% | 1011.9 hPa | 0 mm | - | - | - |
| 1777774834 | 12.78° C | 77% | 1011.8 hPa | 0 mm | - | - | - |
| 1777774662 | 13.33° C | 77% | 1011.7 hPa | 0 mm | - | - | - |
| 1777774241 | 13.33° C | 78% | 1011.7 hPa | 0 mm | - | - | - |
| 1777773934 | 13.33° C | 78% | 1011.8 hPa | 0 mm | - | - | - |
* Rain latest hour (hover to see other rain measurements)
** Current wind speed in m/s (hover to see current wind gust speed)